User: anonymous   Login
Location: Carnetin
(48.9010°N, 2.7059°E)
Time: 18:10:05
(UTC+00:00)
Language:

Sep Motor Cover - Orbit

View from above orbital plane
View from above orbital plane
View from above satellite
View from above satellite

Ground track
Ground track

The orbit data is extracted from the following two-line orbital elements,

1 23091U 94023E   22223.21447435  .00000080  00000-0  11509-3 0  9991
2 23091  70.9823 289.8713 0204244 244.3005 145.7272 13.73236909418248
Epoch (UTC): 11 August 2022 05:08:50
Eccentricity: 0.0204244
inclination: 70.9823°
perigee height: 837 km
apogee height: 1138 km
right ascension of ascending node: 289.8713°
argument of perigee: 244.3005°
revolutions per day: 13.73236909
mean anomaly at epoch: 145.7272°
orbit number at epoch: 41824

The dashed part of the orbit path shows where the satellite is in the earth's shadow,  

DLR